Location: Haliburton Scout Reserve
(45.0900°N, 78.3200°W)
Time: 19:59:51
(UTC-04:00)

STRAND 1 - Pass Details

Date: 28 March 2023
Orbit: 767 x 779 km, 98.4° (Epoch: 06 June)

Event Time Altitude Azimuth Distance (km) Brightness Sun altitude
Rises 06:27:16 0° 146° (SSE) 3,245 ? -6.9°
Reaches altitude 10° 06:29:39 10° 140° (SE) 2,320 ? -6.4°
Maximum altitude 06:34:30 45° 69° (ENE) 1,048 ? -5.6°
Drops below altitude 10° 06:39:22 10° 358° (N) 2,329 ? -4.8°
Sets 06:41:46 0° 352° (N) 3,258 ? -4.3°
